Location: Austin, TX
(30.3000°N, 97.7500°W)
Time: 11:56:36
(UTC-05:00)

Daily predictions for brighter satellites

Satellite Brightness Start Highest point End
(mag) Time Altitude Azimuth Time Altitude Azimuth Time Altitude Azimuth
Cosmos 1076 Rocket 4.3 19:37:52 10° NNE 19:41:44 31° E 19:45:37 10° SE
Meteor 1-22 Rocket 4.2 19:36:39 10° S 19:42:01 85° W 19:47:20 10° N
Cosmos 1707 3.4 19:39:22 10° NNW 19:43:10 61° W 19:46:58 10° S
Delta 168 3.8 19:39:41 10° WSW 19:43:24 43° S 19:48:44 10° E
ATLAS CENTAUR R/B 1.7 19:40:19 10° NW 19:44:19 63° WSW 19:47:59 10° SSE
Cosmos-2242 3.8 19:40:43 10° SSE 19:44:32 31° E 19:48:24 10° NNE
Cosmos 1603 3.8 19:40:16 10° S 19:45:49 55° ESE 19:51:24 10° NNE
Cosmos 1437 3.1 19:44:48 10° NNW 19:48:04 71° W 19:51:18 10° S
SEDSat Delta rocket 4.1 19:44:47 10° W 19:51:16 81° N 19:57:50 11° E
OAO 3 Rocket 3.8 19:48:18 10° WNW 19:52:52 47° N 19:57:20 11° ENE
Cosmos 1470 4.4 19:51:13 10° ESE 19:53:26 15° E 19:55:38 10° NE
Meteor 1-24 Rocket 3.6 19:48:03 10° N 19:53:36 87° E 19:58:57 10° S
MSX 4.1 19:49:52 10° S 19:55:34 74° WSW 20:01:19 10° NNW
Cosmos 1452 Rocket 4.0 19:53:33 10° N 19:58:28 40° ENE 20:03:21 10° SE
Cosmos 2034 Rocket 4.0 19:54:12 10° S 20:00:20 62° E 20:06:32 10° NNE
Cosmos 1464 Rocket 4.0 19:54:30 10° S 20:00:46 87° E 20:06:59 10° N
SJ-6B 2.8 20:01:45 10° SSE 20:05:38 60° ENE 20:09:37 10° N
In-Cosmos 22 4.4 20:00:09 10° N 20:05:47 54° E 20:11:20 10° SSE
Cosmos 1674 4.5 20:04:27 10° NE 20:06:19 14° ENE 20:06:19 14° ENE
ASTEX 1 4.4 20:03:43 10° NE 20:07:33 23° E 20:11:21 10° SE
Cosmos 1842 Rocket 4.4 20:05:15 10° SSE 20:08:52 27° E 20:12:30 10° NNE
ASTRO E2 2.7 20:05:36 10° W 20:09:39 88° N 20:12:23 20° E
Cosmos 468 4.5 20:05:06 10° SSW 20:10:21 89° E 20:15:36 10° NNE
Cosmos 1408 Rocket 3.4 20:09:11 10° N 20:13:30 69° E 20:17:46 10° SSE
CENTAUR R/B 2.5 20:08:59 10° S 20:14:37 54° ESE 20:20:51 10° NE
Cosmos 1484 Rocket 4.1 20:12:37 10° S 20:16:13 41° W 20:19:55 10° NNW
ATLAS 5 CENTAUR R/B 3.8 20:12:37 10° WSW 20:16:40 28° NW 20:20:59 10° N
Cosmos 1758 3.6 20:16:02 10° S 20:20:04 73° W 20:24:11 10° N
ALOS 3.2 20:20:32 22° ESE 20:22:03 26° ENE 20:25:55 10° NNE
ISS -1.4 20:21:15 10° WSW 20:24:07 28° NW 20:26:59 10° NNE
Helios 1A 3.3 20:20:22 10° SE 20:24:20 44° ENE 20:28:20 10° N
NOSS 3-3 (A) 4.5 20:18:17 10° NNW 20:25:58 83° ENE 20:34:00 10° SSE
NOSS 3-3 (C) 4.5 20:18:23 10° NNW 20:26:04 83° ENE 20:34:07 10° SSE
Spot 2 Rocket 3.5 20:23:04 10° SSE 20:28:01 61° ENE 20:32:58 10° N
Cosmos 1544 3.1 20:24:40 10° S 20:28:23 88° W 20:32:08 10° N
Meteosat 1 Rocket2 4.0 20:21:05 10° WSW 20:28:42 59° S 20:31:32 27° E
Cosmos 1048 Rocket 4.0 20:26:18 10° SSW 20:31:38 90° ENE 20:36:54 10° NNE
Resurs 1-3 3.7 20:31:24 16° SSE 20:34:39 52° ENE 20:38:55 10° N
Cosmos 1269 Rocket 4.3 20:29:31 10° SSW 20:34:46 71° WNW 20:40:02 10° N
METEOR-M 4.1 20:32:03 10° SSE 20:37:23 88° E 20:42:45 10° NNW
HJ-1C 3.3 20:37:30 15° S 20:40:13 85° W 20:43:36 10° NNW
Resurs 01 Rocket 1.5 20:35:59 10° SSE 20:40:26 84° ENE 20:44:54 10° N
Cosmos 1743 Rocket 3.4 20:39:10 10° N 20:43:34 69° E 20:46:37 19° SSE
Cosmos 1174 4.2 20:39:14 10° SSW 20:44:32 83° WNW 20:48:25 12° NNE
Meteor 1-21 Rocket 4.2 20:41:42 10° N 20:47:14 85° W 20:52:47 10° S
Cosmos 158 Rocket 3.6 20:45:03 10° S 20:49:56 78° ESE 20:54:49 10° NNE
FENGYUN 3A 3.6 20:51:25 33° SE 20:53:40 60° ENE 20:58:58 10° N
Atlas Centaur 2 4.0 20:48:07 10° W 20:55:55 40° SSW 21:00:49 20° SSE
FUSE 4.4 20:52:24 10° WSW 20:57:31 46° S 20:58:34 40° SSE
H-2A R/B 4.4 21:03:23 25° N 21:03:23 25° N 21:05:07 10° N
USA 215 4.1 20:56:06 10° NNE 21:02:17 47° NW 21:08:27 10° WSW
Helios 1B rocket 4.3 20:59:02 10° N 21:02:40 31° WNW 21:06:19 10° SW
Nadezhda 4 Rocket 4.3 21:05:49 10° NNW 21:11:59 65° W 21:18:04 10° S
GPS 2-04 Rocket1 4.1 21:08:50 10° WNW 21:11:14 30° NW 21:11:14 30° NW
SeaSat 1 2.9 21:14:24 48° S 21:14:24 48° S 21:17:57 10° SSW
Cosmos 1092 Rocket 4.0 21:14:54 10° N 21:21:05 78° W 21:24:55 24° S
Cosmos 1943 4.2 21:18:07 10° SW 21:23:29 46° WNW 21:28:52 10° N
Cosmos 1943 Rocket 4.1 21:19:47 10° N 21:21:09 16° NNE 21:21:09 16° NNE
Cosmos 2369 Rocket 2.6 21:22:47 10° NNW 21:27:10 52° N 21:27:10 52° N
Cosmos 1634 Rocket 4.4 21:24:16 10° SSW 21:30:27 62° W 21:36:36 10° N
Cosmos 2026 Rocket 4.4 21:27:06 10° N 21:31:32 49° NNE 21:31:32 49° NNE
OAO 3 Rocket 4.2 21:31:54 10° WNW 21:35:09 43° WNW 21:35:09 43° WNW
SEDSat Delta rocket 4.0 21:31:25 10° W 21:37:58 75° SSW 21:37:58 75° SSW
Delta 168 4.5 21:35:22 10° WSW 21:39:10 43° SW 21:39:10 43° SW
ALOS 4.4 21:59:05 22° WSW 21:59:23 22° W 22:03:01 10° NW
